Stations météo

réclame
Mon MeteoGroup
Biscarosse, France (7503): Température de l'air & dewpoint: 17.01.2019 08:00:00 - 23.01.2019 08:00:00 (CET)Biscarosse, France (7503): Température de l'air 5cm: 17.01.2019 08:00:00 - 23.01.2019 08:00:00 (CET)Biscarosse, France (7503): Température de l'air -20cm & Température de l'air -100cm: 17.01.2019 08:00:00 - 23.01.2019 08:00:00 (CET)Biscarosse, France (7503): Vitesse du vent & gusts: 17.01.2019 08:00:00 - 23.01.2019 08:00:00 (CET)Biscarosse, France (7503): Direction du vent: 17.01.2019 08:00:00 - 23.01.2019 08:00:00 (CET)Biscarosse, France (7503): reduced air pressure: 17.01.2019 08:00:00 - 23.01.2019 08:00:00 (CET)Biscarosse, France (7503): visibility: 17.01.2019 08:00:00 - 23.01.2019 08:00:00 (CET)Biscarosse, France (7503): Ensoleillement: 17.01.2019 08:00:00 - 23.01.2019 08:00:00 (CET)Biscarosse, France (7503): Quantités de précipitations: 17.01.2019 08:00:00 - 23.01.2019 08:00:00 (CET)
Date & Time tt [°C] td [°C] tt 5cm [°C] tt -20cm [°C] tt -100cm [°C] ff [km/h] ff [knt] fx [km/h] fx [knt] dd ppp [hPa] vv [km] sd [min] rr [mm]
23.01.2019 08:00:00 9,3 7,7 7,3 7,7 9,9 37 20 46 25 NNW 1000,3 12 0 0,0
23.01.2019 07:00:00 7,9 7,1 7,3 7,7 9,9 29 16 40 22 NNW 999,2 11 0 0,4
23.01.2019 06:00:00 8,4 7,6 7,9 7,6 10,0 18 10 28 15 N 998,5 2,8 0 4,9
23.01.2019 05:00:00 9,0 7,8 7,8 7,6 10,0 26 14 48 26 W 999,3 8 0 0,8
23.01.2019 04:00:00 9,7 7,5 7,4 7,5 10,0 34 18 50 27 W 1001,4 10 0 0,6
23.01.2019 03:00:00 10,2 6,9 8,5 7,5 10,0 42 23 55 30 WNW 1003,2 16 0 0,2
23.01.2019 02:00:00 10,2 6,2 8,9 7,5 10,0 37 20 52 28 WNW 1003,7 17 0 0,0
23.01.2019 01:00:00 9,7 6,8 7,6 7,4 10,0 42 23 54 29 WNW 1004,4 17 0 0,0
23.01.2019 00:00:00 9,3 6,4 6,9 7,4 10,0 30 16 45 25 WNW 1005,2 19 0 0,0
22.01.2019 23:00:00 8,3 6,3 7,2 7,5 10,1 36 20 50 27 WNW 1005,9 7 0 0,2
22.01.2019 22:00:00 8,8 6,1 7,3 7,4 10,1 33 18 52 28 WNW 1006,4 17 0 0,0
22.01.2019 21:00:00 8,8 6,8 6,6 7,4 10,1 33 18 61 33 W 1007,3 17 0 0,4
22.01.2019 20:00:00 7,5 6,0 6,2 7,4 10,1 16 8 51 27 W 1008,3 8 0 0,4
22.01.2019 19:00:00 8,1 5,4 6,4 7,4 10,1 44 24 63 34 WNW 1009,0 11 0 0,6
22.01.2019 18:00:00 8,2 5,8 5,9 7,4 10,1 29 16 49 27 NW 1009,3 11 0 0,8
22.01.2019 17:00:00 8,0 3,3 6,4 7,2 10,1 31 17 59 32 NNW 1009,9 17 0 0,0
22.01.2019 16:00:00 8,3 6,1 7,0 7,1 10,1 19 11 39 21 NNW 1010,1 8 0 0,0
22.01.2019 15:00:00 7,3 4,9 6,2 6,9 10,1 24 13 68 37 NNW 1010,7 12 1 2,0
22.01.2019 14:00:00 9,7 6,2 6,6 6,7 10,2 30 16 51 28 NW 1010,3 11 14 0,4
22.01.2019 13:00:00 7,3 6,2 7,1 6,5 10,2 11 6 46 25 N 1010,9 5 0 1,0
22.01.2019 12:00:00 7,6 6,7 7,1 6,4 10,2 3 2 29 16 E 1011,0 20 0 0,2
22.01.2019 11:00:00 8,1 7,2 6,1 6,3 10,2 29 16 48 26 NW 1011,6 6 0 3,6
22.01.2019 10:00:00 6,6 6,3 4,9 6,2 10,2 11 6 24 13 S 1011,9 6 0 1,6
22.01.2019 09:00:00 5,2 4,6 4,2 6,2 10,2 14 8 27 14 SSE 1013,4 9 0 0,0
22.01.2019 08:00:00 4,5 3,8 3,7 6,2 10,2 13 7 22 12 SSE 1014,5 8 0 0,8
22.01.2019 07:00:00 4,1 2,3 3,3 6,3 10,2 9 5 16 9 SE 1015,8 20 0 0,0
22.01.2019 06:00:00 3,5 1,5 2,7 6,4 10,2 10 5 14 8 SE 1016,7 20 0 0,0
22.01.2019 05:00:00 3,3 1,0 2,5 6,5 10,2 11 6 16 9 SSE 1017,8 20 0 0,0
22.01.2019 04:00:00 2,9 0,1 1,9 6,7 10,2 11 6 17 9 SSE 1019,4 20 0 0,0
22.01.2019 03:00:00 2,4 -0,2 1,6 6,9 10,2 9 5 15 8 SE 1020,1 20 0 0,0
22.01.2019 02:00:00 2,2 -0,4 1,5 7,1 10,2 10 5 16 9 SE 1021,1 20 0 0,0
22.01.2019 01:00:00 2,2 -0,2 1,6 7,3 10,2 10 6 16 9 SE 1022,1 20 0 0,0
22.01.2019 00:00:00 2,8 -0,1 2,1 7,5 10,3 10 6 16 8 SE 1022,8 20 0 0,0
21.01.2019 23:00:00 2,4 0,1 1,0 7,7 10,2 9 5 12 7 ESE 1022,9 20 0 0,0
21.01.2019 22:00:00 2,4 0,0 1,0 7,9 10,2 6 3 8 4 ESE 1023,8 20 0 0,0
21.01.2019 21:00:00 2,9 0,6 1,7 8,0 10,3 5 3 6 4 ESE 1023,9 20 0 0,0
21.01.2019 20:00:00 4,0 0,9 3,5 8,1 10,3 4 2 8 5 E 1023,8 20 0 0,0
21.01.2019 19:00:00 4,2 1,2 3,6 8,2 10,3 6 3 10 5 E 1023,7 20 0 0,0
21.01.2019 18:00:00 5,0 0,6 4,4 8,2 10,3 6 4 20 11 N 1023,7 20 9 0,0
21.01.2019 17:00:00 6,5 0,8 6,9 8,1 10,3 12 6 22 12 NNW 1023,4 20 33 0,0
21.01.2019 16:00:00 7,4 1,2 7,9 7,9 10,3 13 7 23 12 N 1023,3 20 29 0,0
21.01.2019 15:00:00 6,6 0,7 8,2 7,7 10,3 14 8 25 13 N 1023,7 20 3 0,0
21.01.2019 14:00:00 6,5 0,2 8,0 7,5 10,3 13 7 25 14 N 1024,1 20 8 0,0
21.01.2019 13:00:00 6,0 0,5 6,6 7,4 10,3 8 5 23 13 NE 1024,4 20 2 0,0
21.01.2019 12:00:00 5,0 1,1 4,8 7,4 10,3 10 6 24 13 ENE 1024,7 20 0 0,0
21.01.2019 11:00:00 4,5 1,3 4,9 7,4 10,3 11 6 23 12 NNE 1024,7 20 0 0,0
21.01.2019 10:00:00 4,6 1,8 4,5 7,6 10,3 9 5 16 9 NE 1023,8 20 0 0,0
21.01.2019 09:00:00 4,1 2,0 2,8 7,7 10,2 9 5 22 12 NE 1023,1 20 0 0,0
21.01.2019 08:00:00 3,7 2,7 2,9 7,9 10,3 6 3 15 8 NNE 1022,6 20 0 0,0
21.01.2019 07:00:00 4,6 3,4 3,6 8,1 10,2 7 4 14 7 N 1022,1 20 0 0,0
21.01.2019 06:00:00 5,3 3,9 4,7 8,2 10,2 7 4 19 10 N 1021,4 20 0 0,0
21.01.2019 05:00:00 6,4 4,9 6,3 8,2 10,2 7 4 15 8 NNE 1021,0 20 0 0,0
21.01.2019 04:00:00 6,6 5,1 6,4 8,3 10,2 5 3 12 6 NNE 1020,7 20 0 0,0
21.01.2019 03:00:00 6,7 5,0 6,3 8,4 10,2 5 3 20 11 NE 1020,4 20 0 0,0
21.01.2019 02:00:00 7,0 5,1 6,7 8,4 10,2 8 4 16 9 NE 1020,2 20 0 0,0
21.01.2019 01:00:00 7,0 5,1 6,7 8,5 10,3 6 3 14 8 NNE 1020,2 20 0 0,0
21.01.2019 00:00:00 7,2 5,0 6,9 8,6 10,2 6 4 14 8 NNE 1019,8 20 0 0,0
20.01.2019 23:00:00 7,5 4,8 7,0 8,7 10,2 8 4 18 10 NE 1019,2 20 0 0,0
20.01.2019 22:00:00 7,7 5,2 6,8 8,8 10,2 10 5 18 10 NNE 1018,6 20 0 0,0
20.01.2019 21:00:00 8,2 5,0 7,8 8,9 10,2 11 6 18 10 NE 1018,0 20 0 0,0
20.01.2019 20:00:00 8,0 4,2 6,2 9,0 10,2 10 5 18 10 NNE 1017,6 20 0 0,0
20.01.2019 19:00:00 6,8 3,9 6,0 9,1 10,2 9 5 15 8 NE 1016,8 20 0 0,0
20.01.2019 18:00:00 8,3 4,9 7,5 9,1 10,2 10 5 29 16 NNE 1016,2 20 0 0,0
20.01.2019 17:00:00 9,8 5,8 9,6 9,0 10,3 21 12 36 19 N 1015,6 20 23 0,0
20.01.2019 16:00:00 10,9 7,2 12,2 8,8 10,2 11 6 18 10 NNW 1015,0 19 58 0,0
20.01.2019 15:00:00 11,3 7,4 16,0 8,5 10,3 13 7 19 10 NNW 1014,6 19 57 0,0
20.01.2019 14:00:00 11,3 7,0 16,0 8,2 10,3 13 7 20 11 NNW 1014,4 17 58 0,0
20.01.2019 13:00:00 10,9 7,4 16,1 7,8 10,3 15 8 21 11 N 1014,5 16 60 0,0
20.01.2019 12:00:00 10,3 7,7 15,2 7,7 10,2 11 6 15 8 N 1014,5 13 60 0,0
20.01.2019 11:00:00 9,6 8,2 8,0 7,6 10,2 2 1 4 2 NNW 1013,7 7 60 0,0
20.01.2019 10:00:00 7,8 7,5 5,5 7,7 10,3 0 0 9 5 N 1012,9 14 16 0,2
20.01.2019 09:00:00 6,6 6,0 6,0 7,7 10,2 5 3 9 5 E 1012,1 6 0 0,0
20.01.2019 08:00:00 6,7 6,1 6,2 7,7 10,2 7 4 16 9 ENE 1011,4 19 0 0,0
20.01.2019 07:00:00 7,4 6,2 6,5 7,8 10,2 5 3 32 18 E 1010,9 7 0 4,9
20.01.2019 06:00:00 7,9 6,4 6,6 7,9 10,2 7 4 14 8 SSE 1010,1 20 0 0,0
20.01.2019 05:00:00 7,1 5,4 6,0 7,9 10,2 9 5 12 6 SSE 1010,2 20 0 0,0
20.01.2019 04:00:00 6,8 4,9 5,7 8,1 10,2 7 4 11 6 SSE 1010,2 20 0 0,0
20.01.2019 03:00:00 6,6 4,9 5,8 8,2 10,2 8 4 12 6 SE 1009,9 20 0 0,0
20.01.2019 02:00:00 6,6 5,2 5,6 8,3 10,2 8 4 18 10 ESE 1009,6 20 0 0,0
20.01.2019 01:00:00 6,0 5,0 5,5 8,4 10,2 11 6 18 10 E 1009,6 20 0 0,0
20.01.2019 00:00:00 6,6 5,2 5,8 8,6 10,2 10 6 16 9 E 1009,3 20 0 0,0
19.01.2019 23:00:00 7,3 5,6 5,9 8,7 10,2 9 5 16 9 E 1009,1 20 0 0,0
19.01.2019 22:00:00 6,8 4,9 5,6 8,9 10,2 9 5 16 8 E 1008,8 20 0 0,0
19.01.2019 21:00:00 7,7 5,3 6,8 9,1 10,2 10 6 18 10 E 1008,5 20 0 0,0
19.01.2019 20:00:00 7,7 6,2 6,5 9,2 10,2 9 5 13 7 E 1008,7 20 0 0,0
19.01.2019 19:00:00 8,2 6,5 7,0 9,3 10,2 8 4 10 5 E 1008,5 20 0 0,0
19.01.2019 18:00:00 9,4 6,5 8,0 9,3 10,2 4 2 10 6 ESE 1008,9 20 18 0,0
19.01.2019 17:00:00 10,9 6,8 11,3 9,1 10,2 11 6 20 11 SSW 1009,1 7 50 0,0
19.01.2019 16:00:00 11,4 7,1 12,1 8,9 10,2 14 8 22 12 SSW 1009,4 12 15 0,0
19.01.2019 15:00:00 11,2 8,1 11,9 8,6 10,2 17 9 34 18 SW 1010,0 11 2 0,0
19.01.2019 14:00:00 11,6 7,7 12,8 8,3 10,2 28 15 37 20 SW 1011,0 15 20 0,0
19.01.2019 13:00:00 11,3 9,4 11,0 8,0 10,2 25 13 34 18 SSW 1012,2 14 9 0,0
19.01.2019 12:00:00 11,3 9,0 8,9 7,9 10,2 19 10 43 23 SSW 1012,8 12 17 0,6
19.01.2019 11:00:00 11,8 8,6 11,7 7,8 10,2 28 15 47 26 SW 1012,9 14 44 0,0
19.01.2019 10:00:00 10,7 7,4 9,1 7,8 10,2 21 11 29 16 W 1012,8 11 25 0,0
19.01.2019 09:00:00 10,3 7,9 8,6 7,8 10,3 24 13 29 15 W 1012,8 11 0 0,0
19.01.2019 08:00:00 10,0 7,2 8,4 7,8 10,2 21 12 30 16 W 1012,5 11 0 0,0
19.01.2019 07:00:00 10,0 7,9 7,2 7,8 10,3 23 13 34 18 W 1012,4 17 0 0,0
19.01.2019 06:00:00 8,9 7,8 7,7 7,8 10,3 23 12 34 18 WSW 1012,5 15 0 0,0
19.01.2019 05:00:00 9,4 8,6 8,5 7,8 10,3 25 14 40 21 SSW 1012,9 12 0 0,0
19.01.2019 04:00:00 9,0 8,5 7,0 7,8 10,3 33 18 40 22 SW 1013,4 11 0 0,2
19.01.2019 03:00:00 7,4 6,8 6,4 7,9 10,3 31 17 36 19 SW 1014,2 17 0 0,0
19.01.2019 02:00:00 6,9 6,2 6,3 7,9 10,3 11 6 19 11 SSE 1014,4 20 0 0,2
19.01.2019 01:00:00 7,0 5,9 6,4 7,9 10,3 10 5 18 10 SSE 1015,2 6 0 1,2
19.01.2019 00:00:00 7,2 5,2 6,7 8,0 10,3 11 6 18 10 SSE 1015,7 20 0 0,0
18.01.2019 23:00:00 7,2 5,7 6,6 8,0 10,3 9 5 16 9 SSE 1015,7 20 0 0,0
18.01.2019 22:00:00 7,2 5,7 6,8 8,1 10,3 8 5 13 7 SE 1015,5 20 0 0,0
18.01.2019 21:00:00 7,6 5,7 7,1 8,1 10,3 5 3 27 15 SSE 1015,6 20 0 0,0
18.01.2019 20:00:00 8,8 6,1 8,0 8,1 10,3 22 12 29 16 SW 1016,0 20 0 0,0
18.01.2019 19:00:00 8,8 5,9 8,0 8,2 10,3 24 13 32 18 SW 1016,4 19 0 0,0
18.01.2019 18:00:00 8,7 6,1 7,8 8,1 10,3 29 15 34 19 SW 1016,6 20 0 0,0
18.01.2019 17:00:00 8,7 6,0 8,0 8,0 10,3 27 15 34 18 WSW 1016,8 20 0 0,0
18.01.2019 16:00:00 9,0 7,1 7,6 7,8 10,3 27 15 32 17 WSW 1017,0 13 1 1,6
18.01.2019 15:00:00 9,1 5,5 9,0 7,6 10,4 18 10 27 14 WSW 1017,2 13 0 0,0
18.01.2019 14:00:00 9,2 7,3 9,1 7,4 10,4 8 4 16 9 SSW 1017,6 15 0 0,0
18.01.2019 13:00:00 7,7 6,6 7,0 7,3 10,4 4 2 11 6 SSE 1018,3 20 0 0,0
18.01.2019 12:00:00 6,5 5,8 6,1 7,2 10,4 6 4 10 6 SSE 1018,9 20 0 0,0
18.01.2019 11:00:00 5,9 5,3 5,6 7,2 10,4 6 4 12 7 SE 1019,2 20 0 0,0
18.01.2019 10:00:00 5,6 5,0 5,1 7,2 10,4 5 3 13 7 ESE 1019,0 20 0 0,0
18.01.2019 09:00:00 5,5 4,9 4,6 7,3 10,4 8 4 13 7 SE 1019,0 20 0 0,0
18.01.2019 08:00:00 5,1 4,4 4,6 7,4 10,4 10 5 13 7 SE 1018,7 20 0 0,0
18.01.2019 07:00:00 5,3 4,4 4,5 7,4 10,3 9 5 12 7 SE 1018,8 20 0 0,0
18.01.2019 06:00:00 5,9 4,7 4,4 7,5 10,4 5 3 15 8 SE 1019,3 20 0 0,0
18.01.2019 05:00:00 5,1 4,4 4,3 7,6 10,4 9 5 13 7 SE 1019,5 20 0 0,0
18.01.2019 04:00:00 5,2 4,5 4,6 7,7 10,4 6 4 10 5 S 1020,2 9 0 0,0
18.01.2019 03:00:00 5,5 4,9 4,2 7,8 10,3 9 5 22 12 SE 1020,3 14 0 1,8
18.01.2019 02:00:00 5,4 4,8 4,2 8,0 10,3 6 3 11 6 E 1020,7 4,6 0 1,4
18.01.2019 01:00:00 4,9 4,3 3,2 8,2 10,3 9 5 14 8 SE 1021,1 15 0 0,0
18.01.2019 00:00:00 4,5 3,8 3,3 8,4 10,3 9 5 11 6 ESE 1021,5 13 0 0,4
17.01.2019 23:00:00 5,7 4,8 3,3 8,6 10,3 5 3 7 4 E 1021,3 19 0 0,0
17.01.2019 22:00:00 5,6 4,6 3,6 8,9 10,3 5 3 8 4 E 1020,9 20 0 0,0
17.01.2019 21:00:00 5,8 4,8 4,3 9,0 10,3 4 2 21 11 E 1020,8 20 0 0,2
17.01.2019 20:00:00 6,5 5,8 4,9 9,2 10,3 3 2 6 4 E 1020,8 20 0 0,0
17.01.2019 19:00:00 6,8 5,9 5,0 9,4 10,3 3 2 4 2 E 1020,2 20 0 0,0
17.01.2019 18:00:00 8,0 6,5 6,4 9,4 10,3 3 1 9 5 E 1019,8 18 0 0,0
17.01.2019 17:00:00 10,3 7,0 9,6 9,3 10,3 5 3 10 5 NNE 1019,3 20 54 0,0
17.01.2019 16:00:00 8,7 6,7 7,6 9,1 10,3 3 2 51 28 NE 1019,3 18 10 1,0
17.01.2019 15:00:00 11,6 5,2 10,4 8,9 10,3 16 9 37 20 WNW 1019,0 20 28 0,0
17.01.2019 14:00:00 11,9 6,8 13,0 8,7 10,3 23 13 29 16 WNW 1019,0 15 44 0,0
17.01.2019 13:00:00 11,3 6,4 10,7 8,5 10,3 19 10 45 24 NW 1019,3 18 32 0,0
17.01.2019 12:00:00 11,9 5,3 9,1 8,4 10,3 27 14 35 19 NW 1019,5 20 48 0,0
17.01.2019 11:00:00 9,2 5,4 9,2 8,4 10,3 13 7 33 18 NNW 1019,5 18 17 0,0
17.01.2019 10:00:00 10,5 5,9 9,0 8,4 10,3 23 12 38 21 NW 1018,8 19 31 0,0
17.01.2019 09:00:00 10,2 6,3 7,4 8,5 10,3 31 17 48 26 W 1018,1 17 0 0,2
17.01.2019 08:00:00 10,0 5,4 7,2 8,6 10,3 34 18 49 26 WNW 1017,6 17 0 0,2

tt = Température de l'air
td = dewpoint
tt 5cm = Température de l'air 5cm
tt -20cm = Température de l'air -20cm
tt -100cm = Température de l'air -100cm
ff = Vitesse du vent
fx = gusts
dd = Direction du vent
ppp = reduced air pressure
vv = visibility
sd = Ensoleillement
rr = Quantités de précipitations

stations d'obs. à proximité